| time (UTC) | temp F | wind direction | speed MPH | gust MPH | rain 1hr in | rain 24hr in | rain mn in | humidity % | barometer mb |
| 20260906060127 | 53 | 325 | 0.0 | 4.0 | 0.00 | 0.00 | 0.00 | 80 | 1007.4 |
| 20260906054553 | 53 | 331 | 1.0 | 4.0 | 0.00 | 0.00 | 0.00 | 82 | 1007.6 |
| 20260906053047 | 52 | 9 | 2.0 | 4.0 | 0.00 | 0.00 | 0.00 | 82 | 1007.4 |
| 20260906051545 | 52 | 25 | 3.0 | 10.0 | 0.00 | 0.00 | 0.00 | 83 | 1007.4 |
| 20260906050054 | 52 | 321 | 2.0 | 11.0 | 0.00 | 0.00 | 0.00 | 83 | 1007.2 |
| 20260906044548 | 51 | 335 | 4.0 | 14.0 | 0.00 | 0.00 | 0.00 | 84 | 1007.0 |
| 20260906043045 | 51 | 0 | 3.0 | 10.0 | 0.00 | 0.00 | 0.00 | 85 | 1006.9 |
| 20260906041546 | 50 | 351 | 5.0 | 11.0 | 0.00 | 0.00 | 0.00 | 87 | 1006.8 |
| 20260906040053 | 49 | 348 | 4.0 | 11.0 | 0.00 | 0.00 | 0.00 | 87 | 1006.7 |
| 20260906034605 | 49 | 336 | 6.0 | 13.0 | 0.00 | 0.00 | 0.00 | 86 | 1006.5 |
| 20260906033047 | 49 | 335 | 7.0 | 15.0 | 0.00 | 0.00 | 0.00 | 86 | 1006.2 |
| 20260906031553 | 49 | 5 | 4.0 | 15.0 | 0.00 | 0.00 | 0.00 | 86 | 1006.0 |
| 20260906030048 | 49 | 352 | 5.0 | 12.0 | 0.00 | 0.00 | 0.00 | 87 | 1006.0 |
| 20260906024552 | 50 | 348 | 5.0 | 13.0 | 0.00 | 0.00 | 0.00 | 86 | 1005.8 |
| 20260906023044 | 50 | 24 | 7.0 | 14.0 | 0.00 | 0.00 | 0.00 | 86 | 1005.6 |
| 20260906021547 | 50 | 348 | 7.0 | 13.0 | 0.00 | 0.00 | 0.00 | 86 | 1005.5 |
| 20260906020057 | 50 | 9 | 5.0 | 12.0 | 0.00 | 0.00 | 0.00 | 86 | 1005.3 |
| 20260906014552 | 50 | 19 | 4.0 | 17.0 | 0.00 | 0.00 | 0.00 | 86 | 1005.3 |
| 20260906013049 | 50 | 315 | 6.0 | 16.0 | 0.00 | 0.00 | 0.00 | 87 | 1005.3 |
| 20260906011547 | 50 | 336 | 7.0 | 20.0 | 0.00 | 0.00 | 0.00 | 86 | 1004.9 |
| 20260906010106 | 50 | 344 | 7.0 | 18.0 | 0.00 | 0.00 | 0.00 | 86 | 1004.7 |
| 20260906004611 | 50 | 345 | 5.0 | 19.0 | 0.00 | 0.00 | 0.00 | 85 | 1004.5 |
| 20260906003049 | 50 | 28 | 8.0 | 18.0 | 0.00 | 0.00 | 0.00 | 86 | 1004.3 |
| 20260906001600 | 50 | 19 | 6.0 | 16.0 | 0.00 | 0.00 | 0.00 | 85 | 1004.2 |
| 20260906000047 | 50 | 326 | 6.0 | 22.0 | 0.00 | 0.00 | 0.00 | 85 | 1003.9 |
| 20260905234552 | 51 | 323 | 7.0 | 19.0 | 0.00 | 0.00 | 0.00 | 84 | 1003.6 |
| 20260905233050 | 51 | 344 | 10.0 | 19.0 | 0.00 | 0.00 | 0.00 | 84 | 1003.6 |
| 20260905231557 | 51 | 360 | 7.0 | 17.0 | 0.00 | 0.00 | 0.00 | 84 | 1003.5 |
| 20260905230058 | 51 | 5 | 6.0 | 19.0 | 0.00 | 0.00 | 0.00 | 84 | 1003.3 |
| 20260905224548 | 52 | 333 | 4.0 | 18.0 | 0.00 | 0.00 | 0.00 | 84 | 1003.2 |
| 20260905223057 | 51 | 352 | 7.0 | 17.0 | 0.00 | 0.00 | 0.00 | 83 | 1003.0 |
| 20260905221600 | 52 | 346 | 8.0 | 16.0 | 0.00 | 0.00 | 0.00 | 83 | 1002.8 |
| 20260905220051 | 52 | 348 | 6.0 | 15.0 | 0.00 | 0.00 | 0.00 | 85 | 1002.7 |
| 20260905214548 | 53 | 16 | 5.0 | 13.0 | 0.00 | 0.00 | 0.00 | 84 | 1002.4 |
| 20260905213049 | 54 | 46 | 8.0 | 15.0 | 0.00 | 0.00 | 0.00 | 84 | 1002.2 |
| 20260905211554 | 54 | 322 | 5.0 | 12.0 | 0.00 | 0.00 | 0.00 | 84 | 1001.8 |
| 20260905210107 | 55 | 352 | 4.0 | 18.0 | 0.00 | 0.00 | 0.00 | 84 | 1001.6 |
| 20260905204546 | 55 | 337 | 6.0 | 14.0 | 0.00 | 0.00 | 0.00 | 84 | 1001.5 |
| 20260905203046 | 56 | 352 | 6.0 | 15.0 | 0.00 | 0.00 | 0.00 | 84 | 1001.1 |
| 20260905201553 | 56 | 15 | 7.0 | 17.0 | 0.00 | 0.00 | 0.00 | 85 | 1000.8 |
| 20260905200112 | 56 | 351 | 3.0 | 14.0 | 0.00 | 0.00 | 0.00 | 85 | 1000.6 |
| 20260905194546 | 56 | 333 | 6.0 | 15.0 | 0.00 | 0.00 | 0.00 | 85 | 1000.4 |
| 20260905193044 | 56 | 340 | 5.0 | 12.0 | 0.00 | 0.00 | 0.00 | 85 | 1000.3 |
| 20260905191552 | 57 | 346 | 7.0 | 15.0 | 0.00 | 0.00 | 0.00 | 84 | 1000.2 |
| 20260905190051 | 57 | 344 | 6.0 | 15.0 | 0.00 | 0.00 | 0.00 | 83 | 1000.2 |
| 20260905184555 | 57 | 344 | 8.0 | 15.0 | 0.00 | 0.00 | 0.00 | 82 | 1000.1 |
| 20260905183046 | 57 | 352 | 7.0 | 16.0 | 0.00 | 0.00 | 0.00 | 82 | 1000.0 |
| 20260905181553 | 57 | 315 | 5.0 | 15.0 | 0.00 | 0.00 | 0.00 | 83 | 999.9 |
| 20260905180050 | 57 | 318 | 4.0 | 15.0 | 0.00 | 0.00 | 0.00 | 82 | 999.7 |
| 20260905174546 | 57 | 311 | 5.0 | 12.0 | 0.00 | 0.00 | 0.00 | 81 | 999.5 |
| 20260905173050 | 58 | 294 | 5.0 | 12.0 | 0.00 | 0.00 | 0.00 | 79 | 999.4 |
| 20260905171553 | 59 | 299 | 4.0 | 14.0 | 0.00 | 0.00 | 0.00 | 79 | 999.3 |
| 20260905170050 | 59 | 346 | 6.0 | 13.0 | 0.00 | 0.00 | 0.00 | 77 | 999.1 |
| 20260905164548 | 60 | 326 | 5.0 | 14.0 | 0.00 | 0.00 | 0.00 | 76 | 998.9 |
| 20260905163045 | 60 | 329 | 8.0 | 17.0 | 0.00 | 0.00 | 0.00 | 74 | 998.9 |
| 20260905161553 | 60 | 306 | 6.0 | 15.0 | 0.00 | 0.00 | 0.00 | 73 | 998.7 |
| 20260905160051 | 60 | 319 | 5.0 | 17.0 | 0.00 | 0.00 | 0.00 | 75 | 998.5 |
| 20260905154547 | 61 | 342 | 8.0 | 14.0 | 0.00 | 0.00 | 0.00 | 71 | 998.5 |
| 20260905153046 | 60 | 324 | 7.0 | 14.0 | 0.00 | 0.00 | 0.00 | 74 | 998.4 |
| 20260905151600 | 61 | 352 | 6.0 | 17.0 | 0.00 | 0.00 | 0.00 | 73 | 998.4 |
| 20260905150049 | 61 | 347 | 10.0 | 17.0 | 0.00 | 0.00 | 0.00 | 73 | 998.4 |
| 20260905144548 | 61 | 348 | 5.0 | 16.0 | 0.00 | 0.00 | 0.00 | 72 | 998.2 |
| 20260905143046 | 62 | 278 | 8.0 | 18.0 | 0.00 | 0.00 | 0.00 | 66 | 998.1 |
| 20260905141551 | 61 | 290 | 5.0 | 13.0 | 0.00 | 0.00 | 0.00 | 71 | 997.9 |
| 20260905140046 | 62 | 319 | 3.0 | 16.0 | 0.00 | 0.00 | 0.00 | 69 | 997.8 |
| 20260905134547 | 63 | 345 | 8.0 | 15.0 | 0.00 | 0.00 | 0.00 | 66 | 997.6 |
| 20260905133043 | 64 | 295 | 8.0 | 16.0 | 0.00 | 0.00 | 0.00 | 57 | 997.4 |
| 20260905131552 | 64 | 343 | 5.0 | 15.0 | 0.00 | 0.00 | 0.00 | 57 | 997.4 |
| 20260905130047 | 63 | 339 | 9.0 | 17.0 | 0.00 | 0.00 | 0.00 | 58 | 997.3 |
| 20260905124547 | 63 | 282 | 7.0 | 17.0 | 0.00 | 0.00 | 0.00 | 59 | 997.1 |
| 20260905123103 | 63 | 338 | 9.0 | 15.0 | 0.00 | 0.00 | 0.00 | 59 | 997.0 |
| 20260905121548 | 64 | 285 | 5.0 | 15.0 | 0.00 | 0.00 | 0.00 | 60 | 996.9 |
| 20260905120046 | 63 | 294 | 6.0 | 15.0 | 0.00 | 0.00 | 0.00 | 60 | 996.8 |
| 20260905114546 | 64 | 344 | 4.0 | 12.0 | 0.00 | 0.00 | 0.00 | 62 | 996.7 |
| 20260905113050 | 64 | 347 | 2.0 | 12.0 | 0.00 | 0.00 | 0.00 | 63 | 996.7 |
| 20260905111555 | 63 | 347 | 4.0 | 13.0 | 0.00 | 0.00 | 0.00 | 65 | 996.6 |
| 20260905110046 | 63 | 344 | 4.0 | 13.0 | 0.00 | 0.00 | 0.00 | 66 | 996.5 |
| 20260905104545 | 62 | 276 | 4.0 | 12.0 | 0.00 | 0.00 | 0.00 | 67 | 996.3 |
| 20260905103058 | 62 | 333 | 5.0 | 15.0 | 0.00 | 0.00 | 0.00 | 66 | 996.2 |
| 20260905101547 | 62 | 346 | 5.0 | 17.0 | 0.00 | 0.00 | 0.00 | 66 | 996.1 |
| 20260905100056 | 61 | 351 | 7.0 | 14.0 | 0.00 | 0.00 | 0.00 | 67 | 996.0 |
| 20260905094547 | 62 | 317 | 6.0 | 12.0 | 0.00 | 0.00 | 0.00 | 68 | 995.8 |
| 20260905093050 | 61 | 307 | 4.0 | 13.0 | 0.00 | 0.00 | 0.00 | 71 | 995.7 |
| 20260905091553 | 60 | 275 | 6.0 | 12.0 | 0.00 | 0.00 | 0.00 | 76 | 995.6 |
| 20260905090045 | 61 | 348 | 4.0 | 10.0 | 0.00 | 0.00 | 0.00 | 74 | 995.3 |
| 20260905084607 | 60 | 20 | 2.0 | 9.0 | 0.00 | 0.00 | 0.00 | 76 | 995.3 |
| 20260905083052 | 60 | 336 | 4.0 | 9.0 | 0.00 | 0.00 | 0.00 | 76 | 995.2 |
| 20260905081545 | 58 | 9 | 5.0 | 10.0 | 0.00 | 0.00 | 0.00 | 80 | 995.3 |
| 20260905080111 | 58 | 344 | 3.0 | 7.0 | 0.00 | 0.00 | 0.00 | 82 | 995.1 |
| 20260905074553 | 56 | 316 | 3.0 | 9.0 | 0.00 | 0.00 | 0.00 | 85 | 994.9 |
| 20260905073049 | 56 | 360 | 3.0 | 8.0 | 0.00 | 0.00 | 0.00 | 87 | 994.9 |
| 20260905071547 | 55 | 327 | 3.0 | 10.0 | 0.00 | 0.00 | 0.00 | 89 | 994.7 |
| 20260905070058 | 55 | 341 | 1.0 | 6.0 | 0.00 | 0.00 | 0.00 | 91 | 994.7 |
| 20260905064559 | 54 | 352 | 3.0 | 7.0 | 0.00 | 0.00 | 0.00 | 92 | 994.6 |
| 20260905063049 | 53 | 313 | 2.0 | 8.0 | 0.00 | 0.00 | 0.00 | 94 | 994.5 |
| 20260905061551 | 53 | 9 | 2.0 | 7.0 | 0.00 | 0.00 | 0.00 | 96 | 994.4 |